Clarion, IA

6:45 PM CST on February 23, 2018 (GMT -0600)
Clarion Municipal

Weather History for KCAV - February, 2012

Change the Weather History Date:

Saturday, February 11, 2012

  Actual Average Record
Temperature  
Mean Temperature 14 °F -  
Max Temperature 26 °F 27 °F 60 °F (1977)
Min Temperature 3 °F 8 °F -22 °F (2014)
Degree Days  
Heating Degree Days 50    
Moisture  
Dew Point -7 °F    
Average Humidity 41    
Maximum Humidity 61    
Minimum Humidity 21    
Precipitation  
Precipitation 0.00 in - - ()
Sea Level Pressure  
Sea Level Pressure 30.56 in    
Wind  
Wind Speed 16 mph (NW)    
Max Wind Speed 22 mph    
Max Gust Speed 29 mph    
Visibility 10 miles    
Events      
Averages and records for this station are not official NWS values.
T = Trace of Precipitation, MM = Missing Value Source: NWS Daily Summary

Daily Weather History Graph

Daily Weather History Graph

Search for Another Location

Airport or City:

Trip Planner

Search our weather history database for the weather conditions in past years. The results will help you decide how hot, cold, wet, or windy it might be!

Date:

Astronomy

Feb. 11, 2012 Rise Set
Actual Time 7:18 AM CST 5:40 PM CST
Civil Twilight 6:48 AM CST 6:10 PM CST
Nautical Twilight 6:15 AM CST 6:43 PM CST
Astronomical Twilight 5:42 AM CST 7:16 PM CST
Moon 10:38 PM CST (2/11) 8:53 AM CST (2/11)
Length of Visible Light 11h 21m
Length of Day
10h 22m
Waning Gibbous, 82% of the Moon is Illuminated
Feb 11
Waning Gibbous
Feb 14
Last Quarter
Feb 21
New
Feb 29
First Quarter
Mar 8
Full

Hourly Weather History & Observations

Time (CST) Temp. Windchill Dew Point Humidity Pressure Visibility Wind Dir Wind Speed Gust Speed Precip Events Conditions
12:15 AM 10.4 °F -7.2 °F -5.8 °F 48% 30.50 in 10.0 mi NNW 17.3 mph 23.0 mph N/A   Clear
12:35 AM 8.6 °F -7.7 °F -5.8 °F 52% 30.50 in 10.0 mi NNW 13.8 mph 21.9 mph N/A   Clear
12:55 AM 8.6 °F -8.3 °F -4.0 °F 57% 30.50 in 10.0 mi NNW 15.0 mph 21.9 mph N/A   Clear
1:15 AM 8.6 °F -7.7 °F -5.8 °F 52% 30.50 in 10.0 mi NNW 13.8 mph 20.7 mph N/A   Clear
1:35 AM 6.8 °F -10.7 °F -5.8 °F 56% 30.51 in 10.0 mi NNW 15.0 mph 21.9 mph N/A   Clear
2:15 AM 6.8 °F -12.4 °F -5.8 °F 56% 30.52 in 10.0 mi NNW 18.4 mph 21.9 mph N/A   Clear
2:35 AM 6.8 °F -10.7 °F -5.8 °F 56% 30.53 in 10.0 mi NNW 15.0 mph 21.9 mph N/A   Clear
2:55 AM 5.0 °F -14.2 °F -7.6 °F 56% 30.53 in 10.0 mi NNW 17.3 mph - N/A   Clear
3:15 AM 5.0 °F -14.7 °F -7.6 °F 56% 30.53 in 10.0 mi NW 18.4 mph 21.9 mph N/A   Clear
3:35 AM 3.2 °F -14.6 °F -7.6 °F 61% 30.54 in 10.0 mi NW 13.8 mph - N/A   Clear
3:55 AM 3.2 °F -14.6 °F -7.6 °F 61% 30.55 in 10.0 mi NW 13.8 mph - N/A   Clear
4:15 AM 3.2 °F -13.9 °F -7.6 °F 61% 30.55 in 10.0 mi NW 12.7 mph - N/A   Clear
4:35 AM 3.2 °F -13.9 °F -7.6 °F 61% 30.55 in 10.0 mi NW 12.7 mph - N/A   Clear
4:55 AM 3.2 °F -13.9 °F -7.6 °F 61% 30.56 in 10.0 mi NW 12.7 mph - N/A   Clear
5:15 AM 3.2 °F -13.9 °F -7.6 °F 61% 30.56 in 10.0 mi NW 12.7 mph - N/A   Clear
5:35 AM 3.2 °F -15.9 °F -7.6 °F 61% 30.56 in 10.0 mi NW 16.1 mph - N/A   Clear
5:55 AM 3.2 °F -13.9 °F -7.6 °F 61% 30.56 in 10.0 mi NW 12.7 mph - N/A   Clear
6:15 AM 3.2 °F -14.6 °F -7.6 °F 61% 30.56 in 10.0 mi NW 13.8 mph 19.6 mph N/A   Clear
6:35 AM 3.2 °F -15.3 °F -7.6 °F 61% 30.57 in 10.0 mi NW 15.0 mph - N/A   Clear
6:55 AM 3.2 °F -14.6 °F -7.6 °F 61% 30.58 in 10.0 mi NW 13.8 mph - N/A   Clear
7:15 AM 3.2 °F -15.9 °F -9.4 °F 56% 30.58 in 10.0 mi NW 16.1 mph - N/A   Clear
7:35 AM 3.2 °F -15.9 °F -9.4 °F 56% 30.59 in 10.0 mi NW 16.1 mph - N/A   Clear
7:55 AM 3.2 °F -16.5 °F -9.4 °F 56% 30.60 in 10.0 mi NW 17.3 mph 21.9 mph N/A   Clear
8:15 AM 3.2 °F -15.9 °F -9.4 °F 56% 30.61 in 10.0 mi NW 16.1 mph - N/A   Clear
8:35 AM 6.8 °F -12.9 °F -9.4 °F 48% 30.61 in 10.0 mi NW 19.6 mph - N/A   Clear
8:55 AM 8.6 °F -10.0 °F -9.4 °F 44% 30.61 in 10.0 mi NW 18.4 mph 24.2 mph N/A   Clear
9:15 AM 8.6 °F -10.5 °F -9.4 °F 44% 30.61 in 10.0 mi NW 19.6 mph - N/A   Clear
9:35 AM 12.2 °F -5.8 °F -9.4 °F 38% 30.62 in 10.0 mi NW 19.6 mph 24.2 mph N/A   Clear
9:55 AM 14.0 °F -3.9 °F -11.2 °F 32% 30.62 in 10.0 mi NW 20.7 mph - N/A   Clear
10:15 AM 14.0 °F -4.7 °F -11.2 °F 32% 30.62 in 10.0 mi NNW 23.0 mph 27.6 mph N/A   Clear
10:35 AM 15.8 °F -1.9 °F -11.2 °F 30% 30.62 in 10.0 mi NNW 21.9 mph 27.6 mph N/A   Clear
10:55 AM 15.8 °F -2.3 °F -9.4 °F 32% 30.63 in 10.0 mi NW 23.0 mph 27.6 mph N/A   Clear
11:15 AM 17.6 °F 0.9 °F -9.4 °F 30% 30.63 in 10.0 mi NW 20.7 mph 25.3 mph N/A   Clear
11:35 AM 17.6 °F 0.9 °F -9.4 °F 30% 30.63 in 10.0 mi NW 20.7 mph 28.8 mph N/A   Clear
11:55 AM 19.4 °F 4.1 °F -9.4 °F 28% 30.63 in 10.0 mi NW 18.4 mph 28.8 mph N/A   Clear
12:15 PM 19.4 °F 3.6 °F -9.4 °F 28% 30.61 in 10.0 mi NW 19.6 mph 25.3 mph N/A   Clear
12:35 PM 21.2 °F 6.4 °F -9.4 °F 26% 30.60 in 10.0 mi NW 18.4 mph 27.6 mph N/A   Clear
12:55 PM 21.2 °F 6.0 °F -9.4 °F 26% 30.59 in 10.0 mi NW 19.6 mph 24.2 mph N/A   Clear
1:15 PM 23.0 °F 8.0 °F -9.4 °F 24% 30.58 in 10.0 mi WNW 20.7 mph 26.5 mph N/A   Clear
1:35 PM 24.8 °F 10.0 °F -9.4 °F 22% 30.57 in 10.0 mi WNW 21.9 mph 27.6 mph N/A   Clear
1:55 PM 24.8 °F 10.3 °F -9.4 °F 22% 30.57 in 10.0 mi WNW 20.7 mph 24.2 mph N/A   Clear
2:15 PM 24.8 °F 10.7 °F -9.4 °F 22% 30.57 in 10.0 mi WNW 19.6 mph 26.5 mph N/A   Clear
2:35 PM 26.6 °F 12.7 °F -9.4 °F 21% 30.56 in 10.0 mi WNW 20.7 mph 26.5 mph N/A   Clear
2:55 PM 26.6 °F 13.1 °F -7.6 °F 22% 30.56 in 10.0 mi WNW 19.6 mph 26.5 mph N/A   Clear
3:15 PM 26.6 °F 13.4 °F -9.4 °F 21% 30.55 in 10.0 mi NW 18.4 mph 26.5 mph N/A   Clear
3:35 PM 26.6 °F 12.4 °F -9.4 °F 21% 30.55 in 10.0 mi WNW 21.9 mph 26.5 mph N/A   Clear
3:55 PM 26.6 °F 13.1 °F -9.4 °F 21% 30.55 in 10.0 mi WNW 19.6 mph 25.3 mph N/A   Clear
4:15 PM 26.6 °F 13.4 °F -9.4 °F 21% 30.54 in 10.0 mi WNW 18.4 mph 25.3 mph N/A   Clear
4:35 PM 26.6 °F 13.8 °F -9.4 °F 21% 30.54 in 10.0 mi WNW 17.3 mph - N/A   Clear
4:55 PM 26.6 °F 13.1 °F -7.6 °F 22% 30.54 in 10.0 mi WNW 19.6 mph - N/A   Clear
5:15 PM 24.8 °F 11.1 °F -7.6 °F 24% 30.54 in 10.0 mi WNW 18.4 mph 23.0 mph N/A   Clear
5:35 PM 24.8 °F 12.4 °F -7.6 °F 24% 30.54 in 10.0 mi WNW 15.0 mph - N/A   Clear
5:55 PM 23.0 °F 9.2 °F -7.6 °F 26% 30.54 in 10.0 mi WNW 17.3 mph 21.9 mph N/A   Clear
6:15 PM 21.2 °F 7.8 °F -5.8 °F 30% 30.53 in 10.0 mi WNW 15.0 mph - N/A   Clear
6:35 PM 21.2 °F 10.1 °F -4.0 °F 33% 30.54 in 10.0 mi WNW 10.4 mph - N/A   Clear
6:55 PM 19.4 °F 8.6 °F -2.2 °F 39% 30.53 in 10.0 mi West 9.2 mph - N/A   Clear
7:15 PM 17.6 °F 6.4 °F -0.4 °F 45% 30.53 in 10.0 mi West 9.2 mph - N/A   Clear
7:35 PM 17.6 °F 5.0 °F -0.4 °F 45% 30.53 in 10.0 mi West 11.5 mph - N/A   Clear
7:55 PM 17.6 °F 5.0 °F -0.4 °F 45% 30.53 in 10.0 mi West 11.5 mph - N/A   Clear
8:15 PM 17.6 °F 3.7 °F -0.4 °F 45% 30.53 in 10.0 mi West 13.8 mph - N/A   Clear
8:35 PM 17.6 °F 4.3 °F -0.4 °F 45% 30.54 in 10.0 mi West 12.7 mph - N/A   Clear
8:55 PM 15.8 °F 2.7 °F -0.4 °F 49% 30.54 in 10.0 mi West 11.5 mph - N/A   Clear
9:15 PM 15.8 °F 2.7 °F -0.4 °F 49% 30.54 in 10.0 mi WNW 11.5 mph - N/A   Clear
9:35 PM 15.8 °F 2.7 °F -0.4 °F 49% 30.54 in 10.0 mi West 11.5 mph - N/A   Clear
9:55 PM 15.8 °F 2.7 °F -0.4 °F 49% 30.54 in 10.0 mi WNW 11.5 mph - N/A   Clear
10:15 PM 15.8 °F 3.4 °F -0.4 °F 49% 30.54 in 10.0 mi WNW 10.4 mph - N/A   Clear
10:35 PM 14.0 °F 1.2 °F -0.4 °F 53% 30.53 in 10.0 mi WNW 10.4 mph - N/A   Clear
10:55 PM 14.0 °F 1.2 °F -0.4 °F 53% 30.52 in 10.0 mi WNW 10.4 mph - N/A   Clear
11:15 PM 14.0 °F 2.0 °F -0.4 °F 53% 30.52 in 10.0 mi WNW 9.2 mph - N/A   Clear
11:35 PM 12.2 °F -0.2 °F -0.4 °F 57% 30.51 in 10.0 mi WNW 9.2 mph - N/A   Clear
11:55 PM 12.2 °F -1.0 °F -0.4 °F 57% 30.51 in 10.0 mi WNW 10.4 mph - N/A   Clear